Header for Extended Forecast Station List Page

Search by: ID | Name | Date | Parm | Value | Avg | % Avg
Sort by: ID | Name | Date | Parm | Value | Avg | % Avg

Enter search or view all records.

Click on id for station plot
#IDNameDateParmValueAvg% Avg
0LEOI1KOOTENAI-AT LEONIA01-17-2022DISCHARGE (KAF)36602128172
1FCFM8NF FLATHEAD-NEAR COLUMBIA FALLS01-17-2022DISCHARGE (KAF)557541103
2WGCM8MF FLATHEAD-NEAR WEST GLACIER01-17-2022DISCHARGE (KAF)34151367
3CFMM8FLATHEAD-AT COLUMBIA FALLS01-17-2022DISCHARGE (KAF)19341906101
4DLGM8CLARK FORK-AT DEER LODGE01-17-2022DISCHARGE (KAF)465879
5DRMM8CLARK FORK-NR DRUMMOND01-17-2022DISCHARGE (KAF)11215771
6RCCM8ROCK CREEK-NEAR CLINTON01-17-2022DISCHARGE (KAF)669668
7BONM8BLACKFOOT-NEAR BONNER01-17-2022DISCHARGE (KAF)26534976
8ABOM8CLARK FORK-ABOVE MISSOULA01-17-2022DISCHARGE (KAF)46063972
9BITM8BITTERROOT-NEAR MISSOULA01-17-2022DISCHARGE (KAF)34244477
10BELM8CLARK FORK-BELOW MISSOULA01-17-2022DISCHARGE (KAF)803110972
11STRM8ST. REGIS-NEAR ST. REGIS01-17-2022DISCHARGE (KAF)13315487
12SRGM8CLARK FORK-AT ST REGIS01-17-2022DISCHARGE (KAF)1122150275
13PRTI1PRIEST-NEAR PRIEST RIVER01-17-2022DISCHARGE (KAF)41246788
14SPOW1SPOKANE-AT SPOKANE01-17-2022DISCHARGE (KAF)22792285100
15SATI1ST MARIES-NEAR SANTA01-17-2022DISCHARGE (KAF)11912993
16CIBW1COLUMBIA-AT INTL BOUNDARY01-17-2022DISCHARGE (KAF)2333419572119
17LAUW1KETTLE-AT LAURIER01-17-2022DISCHARGE (KAF)65181980
18TONW1OKANOGAN-NEAR TONASKET01-17-2022DISCHARGE (KAF)752636118
19PATW1METHOW-NEAR PATEROS01-17-2022DISCHARGE (KAF)335319105
20ARDW1ENTIAT-NEAR ARDENVOIR01-17-2022DISCHARGE (KAF)7464117
21PESW1WENATCHEE-AT PESHASTIN01-17-2022DISCHARGE (KAF)651638102
22EASW1YAKIMA-AT EASTON01-17-2022DISCHARGE (KAF)11699117
23TNAW1TEANAWAY-BELOW FORKS01-17-2022DISCHARGE (KAF)151112134
24UMTW1YAKIMA-AT UMTANUM01-17-2022DISCHARGE (KAF)553509109
25CLFW1NACHES-NEAR CLIFFDEL01-17-2022DISCHARGE (KAF)20822891
26NACW1NACHES-NEAR NACHES01-17-2022DISCHARGE (KAF)29232789
27PARW1YAKIMA-NEAR PARKER01-17-2022DISCHARGE (KAF)65167696
28KIOW1YAKIMA-AT KIONA01-17-2022DISCHARGE (KAF)96598698
29CHEI1FALL RIVER-NEAR CHESTER01-17-2022DISCHARGE (KAF)15218084
30ANTI1HENRYS FORK-AT ST. ANTHONY01-17-2022DISCHARGE (KAF)39847883
31TEAI1TETON-NEAR ST. ANTHONY01-17-2022DISCHARGE (KAF)11214776
32REXI1HENRYS FORK-AT REXBURG01-17-2022DISCHARGE (KAF)42851783
33JKSW4SNAKE-NEAR JACKSON01-17-2022DISCHARGE (KAF)34748072
34ALPW4SNAKE-NEAR ALPINE01-17-2022DISCHARGE (KAF)49462180
35HEII1SNAKE-NEAR HEISE01-17-2022DISCHARGE (KAF)10891003109
36SIFI1SNAKE-AB EAGLE ROCK NR IDAHO FALLS01-17-2022DISCHARGE (KAF)11691059110
37SHYI1SNAKE-NEAR SHELLEY01-17-2022DISCHARGE (KAF)11101030108
38SNAI1SNAKE-AT BLACKFOOT01-17-2022DISCHARGE (KAF)966791122
39BFTI1SNAKE-NEAR BLACKFOOT01-17-2022DISCHARGE (KAF)954786121
40PIHI1PORTNEUF-AT POCATELLO01-17-2022DISCHARGE (KAF)687295
41MILI1SNAKE-AT MILNER01-17-2022DISCHARGE (KAF)M54M
42HOTI1BRUNEAU-NEAR HOT SPRINGS01-17-2022DISCHARGE (KAF)669073
43SWAI1SNAKE-BELOW SWAN FALLS01-17-2022DISCHARGE (KAF)1739188192
44HWRI1BIG LOST-AT HOWELL RANCH NEAR CHILLY01-17-2022DISCHARGE (KAF)223464
45HALI1BIG WOOD-AT HAILEY01-17-2022DISCHARGE (KAF)427854
46BIGI1BOISE-AT GLENWOOD BRIDGE01-17-2022DISCHARGE (KAF)290137211
47PARI1BOISE-NEAR PARMA01-17-2022DISCHARGE (KAF)406219185
48EMMI1PAYETTE-NEAR EMMETT01-17-2022DISCHARGE (KAF)62970190
49WSRI1WEISER-NEAR WEISER01-17-2022DISCHARGE (KAF)359357101
50WEII1SNAKE-AT WEISER01-17-2022DISCHARGE (KAF)3417357196
51WHBI1SALMON-AT WHITEBIRD01-17-2022DISCHARGE (KAF)1573228669
52TRYO3GRANDE RONDE-TROY01-17-2022DISCHARGE (KAF)91598793
53ANAW1SNAKE-NEAR ANATONE01-17-2022DISCHARGE (KAF)6406835677
54ORFI1CLEARWATER-AT OROFINO01-17-2022DISCHARGE (KAF)25752447105
55SPDI1CLEARWATER-AT SPALDING01-17-2022DISCHARGE (KAF)51904107126
56TCHW1WALLA WALLA-NEAR TOUCHET01-17-2022DISCHARGE (KAF)18423379
57GIBO3UMATILLA-NEAR GIBBON01-17-2022DISCHARGE (KAF)9487107
58PDTO3UMATILLA-AT PENDLETON01-17-2022DISCHARGE (KAF)231202114
59MYKO3MCKAY CREEK-NEAR PILOT ROCK01-17-2022DISCHARGE (KAF)394488
60UMAO3UMATILLA-NEAR UMATILLA01-17-2022DISCHARGE (KAF)223182122
61MONO3NF JOHN DAY-AT MONUMENT01-17-2022DISCHARGE (KAF)39850878
62SERO3JOHN DAY-AT SERVICE CK01-17-2022DISCHARGE (KAF)53573473
63MODO3DESCHUTES-AT MOODY NR BIGGS01-17-2022DISCHARGE (KAF)15151471103
64PITW1KLICKITAT-NEAR PITT01-17-2022DISCHARGE (KAF)509483105
65HODO3HOOD-NEAR TUCKER BRIDGE01-17-2022DISCHARGE (KAF)326270121
66UNDW1WHITE SALMON-NEAR UNDERWOOD01-17-2022DISCHARGE (KAF)355336106
67LYDM8KOOTENAI-LIBBY DAM01-17-2022INFLOW (KAF)16251597102
68HHWM8SF FLATHEAD-HUNGRY HORSE DAM01-17-2022INFLOW (KAF)62974584
69KERM8FLATHEAD-SELI’Š KSANKA QLISPE’ DAM01-17-2022INFLOW (KAF)2125248486
70NOXM8CLARK FORK-NOXON RAPIDS DAM01-17-2022INFLOW (KAF)3536429782
71CABI1CLARK FORK-CABINET GORGE DAM01-17-2022INFLOW (KAF)3944492680
72ALFW1PEND OREILLE-ALBENI FALLS DAM01-17-2022INFLOW (KAF)4937585084
73COEI1COEUR D ALENE-COEUR D ALENE LAKE01-17-2022INFLOW (KAF)24522252109
74LLKW1SPOKANE-AT LONGLAKE01-17-2022INFLOW (KAF)26102617100
75GCDW1COLUMBIA-GRAND COULEE DAM01-17-2022INFLOW (KAF)2663522768117
76CHJW1COLUMBIA-CHIEF JOSEPH DAM01-17-2022INFLOW (KAF)2863425394113
77WELW1COLUMBIA-WELLS DAM01-17-2022INFLOW (KAF)2969626571112
78CHDW1CHELAN-LAKE CHELAN DAM01-17-2022INFLOW (KAF)36140789
79RRHW1COLUMBIA-ROCKY REACH DAM01-17-2022INFLOW (KAF)3011927087111
80WANW1COLUMBIA-WANAPUM DAM01-17-2022INFLOW (KAF)3078027946110
81PRWW1COLUMBIA-PRIEST RAPIDS DAM01-17-2022INFLOW (KAF)3077628023110
82KEDW1YAKIMA-KEECHELUS LAKE01-17-2022INFLOW (KAF)10482126
83KADW1KACHESS-KACHESS DAM01-17-2022INFLOW (KAF)9178117
84CLUW1CLE ELUM-CLE ELUM LAKE01-17-2022INFLOW (KAF)242208117
85BUDW1BUMPING-BUMPING LAKE DAM01-17-2022INFLOW (KAF)7061114
86RILW1TIETON-RIMROCK LAKE NEAR RIMROCK01-17-2022INFLOW (KAF)10811198
87IPDI1HENRYS FORK-ISLAND PARK DAM01-17-2022INFLOW (KAF)11813488
88JLKW4SNAKE-JACKSON LAKE AT DAM01-17-2022INFLOW (KAF)17224371
89PLDI1SF SNAKE-PALISADES DAM01-17-2022INFLOW (KAF)809104478
90RIDI1WILLOW CREEK-RIRIE DAM01-17-2022INFLOW (KAF)4931157
91AFRI1SNAKE-AMERICAN FALLS RESERVOIR01-17-2022INFLOW (KAF)15641439109
92MACI1BIG LOST-MACKAY RESERVOIR NEAR MACKAY01-17-2022INFLOW (KAF)293777
93MAGI1BIG WOOD-MAGIC DAM01-17-2022INFLOW (KAF)659568
94LWRI1LITTLE WOOD-LITTLE WOOD DAM01-17-2022INFLOW (KAF)4134120
95OWYO3OWYHEE-OWYHEE DAM01-17-2022INFLOW (KAF)416247168
96ARAI1SF BOISE-ANDERSON RANCH DAM01-17-2022INFLOW (KAF)230227101
97LUCI1BOISE-LUCKY PEAK DAM01-17-2022INFLOW (KAF)669589114
98WRMO3MALHEUR-WARM SPRINGS DAM01-17-2022INFLOW (KAF)537571
99BERO3MALHEUR-AGENCY VALLEY DAM01-17-2022INFLOW (KAF)374484
100BULO3BULLY CREEK-BULLY CREEK DAM01-17-2022INFLOW (KAF)105184
101CSDI1NF PAYETTE-CASCADE DAM01-17-2022INFLOW (KAF)21925386
102DEDI1DEADWOOD-NEAR LOWMAN01-17-2022INFLOW (KAF)395472
103BRNI1SNAKE-BROWNLEE DAM01-17-2022INFLOW (KAF)3814394097
104DWRI1NF CLEARWATER-DWORSHAK DAM01-17-2022INFLOW (KAF)20001695118
105LGDW1SNAKE-LOWER GRANITE DAM01-17-2022INFLOW (KAF)115931280391
106LGSW1SNAKE-LITTLE GOOSE DAM01-17-2022INFLOW (KAF)115931285490
107LMNW1SNAKE-LOWER MONUMENTAL DAM01-17-2022INFLOW (KAF)119901304792
108IHDW1SNAKE-ICE HARBOR DAM01-17-2022INFLOW (KAF)119921306192
109MCDW1COLUMBIA-MCNARY DAM01-17-2022INFLOW (KAF)4386342207104
110JDAO3COLUMBIA-JOHN DAY DAM01-17-2022INFLOW (KAF)4576844249103
111TDAO3COLUMBIA-THE DALLES DAM01-17-2022INFLOW (KAF)4631944788103
112BONO3COLUMBIA-BONNEVILLE DAM01-17-2022INFLOW (KAF)4749246810101
113HOPI1PEND OREILLE-PEND OREILLE LAKE NR HOPE01-17-2022LAKE ELEVATION (FT)MMM
114BFEI1KOOTENAI-AT BONNERS FERRY01-17-2022STAGE (FT)MMM
115SJMI1ST JOE-AT ST MARIES01-17-2022STAGE (FT)MMM